Location: La Comballaz
(46.3780°N, 7.0817°E)
Time: 19:14:16
(UTC+00:00)

AO-7 - Pass Details

Date: 15 December 2022
Orbit: 1440 x 1458 km, 101.9° (Epoch: 07 February)

Event Time Altitude Azimuth Distance (km) Brightness Sun altitude
Rises 17:11:38 0° 220° (SW) 4,524 ? -14.1°
Reaches altitude 10° 17:16:09 10° 242° (WSW) 3,550 ? -14.9°
Maximum altitude 17:20:23 15° 274° (W) 3,192 ? -15.6°
Drops below altitude 10° 17:24:39 10° 306° (NW) 3,560 ? -16.3°
Sets 17:29:15 0° 329° (NNW) 4,544 ? -17.0°
